Date,TemperatureHighF,TemperatureAvgF,TemperatureLowF,DewpointHighF,DewpointAvgF,DewpointLowF,HumidityHigh,HumidityAvg,HumidityLow,PressureMaxIn,PressureMinIn,WindSpeedMaxMPH,WindSpeedAvgMPH,GustSpeedMaxMPH,PrecipitationSumIn
2013-3-1,29.8,27.8,25.9,26.1,24.6,21.2,98,88,70,30.06,29.96,11,7,11,0.00
2013-3-2,34.9,29.8,22.1,23.9,17.1,14.7,95,60,46,30.13,30.06,11,6,11,0.06
2013-3-3,51.3,39.8,15.4,24.2,19.5,13.9,95,49,27,30.04,29.77,13,6,16,0.00
2013-3-4,35.8,35.8,35.8,26.6,26.6,26.3,69,69,69,29.62,29.61,14,9,21,0.00
2013-3-5,44.2,36.1,32.0,42.1,26.2,18.8,99,69,46,29.97,29.67,18,14,21,0.15
2013-3-6,44.8,31.6,23.7,20.9,19.0,17.4,84,61,35,30.23,30.09,14,6,14,0.00
2013-3-7,61.9,41.6,23.7,30.2,23.0,13.8,89,55,16,30.16,30.03,12,5,12,0.00
2013-3-8,59.9,51.5,33.3,33.1,30.6,27.8,90,46,31,30.15,29.98,12,8,17,0.00
2013-3-9,72.9,60.2,41.5,53.7,41.9,25.6,99,57,20,29.87,29.60,18,11,25,0.66
2013-3-10,62.4,52.0,41.7,55.3,50.2,40.8,99,94,55,29.65,29.50,18,8,27,0.87
2013-3-11,42.4,31.3,26.6,31.8,27.2,23.7,99,86,51,29.86,29.67,22,10,22,0.01
2013-3-12,52.7,38.0,26.1,25.9,21.9,14.9,87,56,22,30.13,29.85,17,7,17,0.00
2013-3-13,50.9,35.6,25.0,22.8,17.1,3.3,80,52,14,30.29,30.13,10,6,10,0.00
2013-3-14,73.4,50.5,27.1,39.0,26.3,17.8,76,45,16,30.22,29.93,19,7,19,0.00
2013-3-15,83.5,65.6,50.4,44.2,38.7,28.9,70,42,14,29.94,29.60,15,8,15,0.00
2013-3-16,64.8,51.4,41.7,46.7,41.1,36.0,81,68,42,29.82,29.59,13,9,18,0.00
2013-3-17,36.7,35.1,33.6,36.4,34.8,33.4,99,99,99,29.87,29.61,12,8,16,1.68
2013-3-18,54.5,44.4,34.9,39.4,33.1,22.4,99,71,34,29.77,29.54,14,8,15,0.00
2013-3-19,39.4,31.1,25.0,24.7,20.8,14.6,81,66,36,30.05,29.90,7,3,7,0.00
2013-3-23,46.8,43.1,34.9,40.7,35.6,32.7,99,75,64,29.82,29.64,8,5,11,0.09
2013-3-24,37.4,32.1,28.4,37.1,31.9,28.2,99,99,96,29.73,29.44,16,10,24,0.20
2013-3-25,33.1,27.4,22.5,29.1,24.7,21.0,99,90,76,30.10,29.82,14,9,14,0.00
2013-3-26,45.9,32.1,20.3,26.8,22.6,18.3,99,72,33,30.22,30.10,8,5,8,0.00
2013-3-27,58.3,40.2,21.0,30.2,21.0,8.3,99,56,15,30.19,30.06,11,4,11,0.00
2013-3-28,70.2,54.3,41.4,41.6,34.6,27.7,89,51,23,30.11,29.99,10,5,13,0.04
2013-3-29,69.6,57.3,45.5,56.4,48.2,36.5,99,75,40,30.06,30.00,11,3,11,0.46
2013-3-30,60.4,52.4,45.0,52.7,49.5,43.3,99,90,72,30.00,29.75,15,6,18,0.19
2013-3-31,73.4,62.0,46.4,55.7,40.5,25.5,99,53,20,29.82,29.74,12,6,16,0.24